[Date Prev][Date Next][Thread Prev][Thread Next] - [Date Index][Thread Index][Author Index]
2 Line ISS Keps 9-28
- Subject: [sarex] 2 Line ISS Keps 9-28
- From: "Dave Larsen PhD" <doc@xxxxxxxxxxx>
- Date: Wed, 27 Sep 2006 20:18:31 -0700
ISS
1 25544U 98067A 06270.97453704 .00011852 00000-0 77603-4 0 7547
2 25544 051.6383 017.9684 0012959 033.4192 121.5807 15.76221155449377
----
Sent via sarex@amsat.org. Opinions expressed are those of the author.
Not an AMSAT member? Join now to support the amateur satellite program!
Subscription settings: http://amsat.org/mailman/listinfo/sarex
AMSAT Home